Flag for USA

Past Weather in 38°02'14.8"N, 78°29'18.6"W, USA — Yesterday and Last 2 Weeks

Currently: 45 °F. Overcast. (Weather station: Charlottesville-Albemarle Airport, USA). See more current weather

Past Weather in 38°02'14.8"N, 78°29'18.6"W — Graph

°F

38°02'14.8"N, 78°29'18.6"W Temperature Yesterday

Maximum temperature yesterday: 57 °F (at 12:07 pm)
Minimum temperature yesterday: 44 °F (at 6:27 am)
Average temperature yesterday: 50 °F

High & Low Weather Summary for the Past Weeks

 TemperatureHumidityPressure
High69 °F (Nov 25, 12:53 pm)100% (Dec 3, 9:53 am)30.55 "Hg (Dec 3, 9:53 am)
Low27 °F (Dec 5, 4:53 am)20% (Nov 26, 12:53 pm)29.47 "Hg (Nov 27, 4:53 pm)
Average48 °F63%30.14 "Hg
* Reported Nov 24 7:53 pm — Dec 9 7:53 pm, 38°02'14.8"N, 78°29'18.6"W. Weather by CustomWeather, © 2022

Note: Actual official high and low records may vary slightly from our data, if they occured in-between our weather recording intervals... More about our weather records

38°02'14.8"N, 78°29'18.6"W Weather History for the Previous 24 Hours

Scroll right to see more
 ConditionsComfort  
Time TempWeatherWind HumidityBarometerVisibility
7:53 pm
Fri, Dec 9
45 °FMostly cloudy.3 mph68%30.26 "Hg10 mi
5:53 pm45 °FOvercast.No wind65%30.23 "Hg10 mi
4:53 pm46 °FPassing clouds.No wind61%30.22 "Hg10 mi
3:53 pm49 °FPartly sunny.3 mph52%30.22 "Hg10 mi
2:53 pm49 °FOvercast.No wind52%30.22 "Hg10 mi
1:53 pm49 °FPartly sunny.3 mph52%30.22 "Hg10 mi
12:53 pm48 °FPartly sunny.5 mph52%30.24 "Hg10 mi
11:53 am47 °FOvercast.6 mph54%30.27 "Hg10 mi
10:53 am46 °FOvercast.3 mph56%30.28 "Hg10 mi
10:05 am45 °FOvercast.7 mph56%30.30 "Hg10 mi
9:34 am44 °FOvercast.9 mph58%30.29 "Hg10 mi
8:53 am44 °FOvercast.10 mph60%30.28 "Hg10 mi
8:22 am44 °FOvercast.8 mph63%30.28 "Hg10 mi
7:53 am44 °FOvercast.7 mph65%30.28 "Hg10 mi
7:21 am45 °FOvercast.8 mph63%30.28 "Hg10 mi
6:53 am45 °FOvercast.8 mph68%30.27 "Hg10 mi
5:53 am46 °FOvercast.7 mph68%30.26 "Hg10 mi
4:53 am47 °FOvercast.6 mph69%30.25 "Hg10 mi
3:53 am47 °FOvercast.7 mph71%30.26 "Hg10 mi
2:53 am47 °FOvercast.7 mph74%30.25 "Hg10 mi
1:53 am47 °FOvercast.5 mph86%30.24 "Hg10 mi
12:53 am48 °FOvercast.No wind86%30.25 "Hg10 mi
11:53 pm
Thu, Dec 8
48 °FOvercast.No wind83%30.26 "Hg10 mi
10:53 pm49 °FLight rain. Overcast.5 mph77%30.25 "Hg10 mi
10:32 pm50 °FLight rain. Mostly cloudy.5 mph71%30.25 "Hg10 mi
9:53 pm50 °FLight rain. Overcast.5 mph74%30.25 "Hg10 mi
Weather by CustomWeather, © 2022

See weather overview